TimeMDT,TemperatureF,Dew PointF,Humidity,Sea Level PressureIn,VisibilityMPH,Wind Direction,Wind SpeedMPH,Gust SpeedMPH,PrecipitationIn,Events,Conditions,WindDirDegrees,DateUTC
12:53 AM,62.6,42.8,48,30.20,10.0,West,8.1,-,N/A,,Clear,270,2014-08-17 06:53:00
1:53 AM,62.1,39.9,44,29.91,10.0,WNW,9.2,-,N/A,,Clear,290,2014-08-17 07:53:00
2:53 AM,59.0,39.0,48,29.91,10.0,WNW,6.9,-,N/A,,Clear,290,2014-08-17 08:53:00
3:53 AM,57.0,39.0,51,29.92,10.0,West,4.6,-,N/A,,Clear,260,2014-08-17 09:53:00
4:53 AM,64.0,34.0,33,29.90,10.0,WNW,19.6,-,N/A,,Clear,290,2014-08-17 10:53:00
5:53 AM,63.0,34.0,34,29.92,10.0,WNW,20.7,28.8,N/A,,Clear,290,2014-08-17 11:53:00
6:53 AM,64.0,35.1,34,29.95,10.0,West,13.8,-,N/A,,Clear,280,2014-08-17 12:53:00
7:53 AM,69.1,36.0,30,29.96,10.0,WNW,13.8,-,N/A,,Clear,290,2014-08-17 13:53:00
8:53 AM,73.9,39.0,28,29.96,10.0,WNW,12.7,-,N/A,,Clear,290,2014-08-17 14:53:00
9:53 AM,80.1,33.1,18,29.95,10.0,WNW,11.5,25.3,N/A,,Clear,300,2014-08-17 15:53:00
10:53 AM,82.0,25.0,12,29.96,10.0,NW,11.5,20.7,N/A,,Clear,310,2014-08-17 16:53:00
11:53 AM,84.9,28.9,13,29.94,10.0,West,17.3,27.6,N/A,,Clear,260,2014-08-17 17:53:00
12:53 PM,86.0,28.0,12,29.93,10.0,WNW,17.3,23.0,N/A,,Clear,290,2014-08-17 18:53:00
1:53 PM,86.0,26.1,11,29.92,10.0,NNW,17.3,27.6,N/A,,Clear,330,2014-08-17 19:53:00
2:00 PM,86.0,24.1,10,30.20,10.0,NW,17.3,27.6,N/A,,Clear,310,2014-08-17 20:00:00
2:53 PM,87.1,24.1,10,29.92,10.0,WNW,19.6,28.8,N/A,,Clear,290,2014-08-17 20:53:00
3:53 PM,87.1,26.1,11,29.91,10.0,WNW,13.8,26.5,N/A,,Clear,300,2014-08-17 21:53:00
4:53 PM,88.0,27.0,11,29.86,10.0,WNW,18.4,28.8,N/A,,Clear,300,2014-08-17 22:53:00
5:53 PM,87.1,26.1,11,29.85,10.0,WNW,16.1,31.1,N/A,,Clear,300,2014-08-17 23:53:00
6:53 PM,84.0,28.0,13,29.85,10.0,WNW,12.7,19.6,N/A,,Clear,290,2014-08-18 00:53:00
7:53 PM,79.0,30.0,17,29.86,10.0,NW,5.8,-,N/A,,Clear,320,2014-08-18 01:53:00
8:53 PM,73.9,33.1,22,29.90,10.0,South,9.2,-,N/A,,Clear,180,2014-08-18 02:53:00
9:53 PM,72.0,33.1,24,29.88,10.0,NE,8.1,-,N/A,,Clear,50,2014-08-18 03:53:00
10:53 PM,69.1,34.0,27,29.88,10.0,ENE,3.5,-,N/A,,Clear,70,2014-08-18 04:53:00
11:53 PM,66.9,37.0,33,29.87,10.0,Calm,Calm,-,N/A,,Clear,0,2014-08-18 05:53:00